TimeCDT,TemperatureF,Dew PointF,Humidity,Sea Level PressureIn,VisibilityMPH,Wind Direction,Wind SpeedMPH,Gust SpeedMPH,PrecipitationIn,Events,Conditions,WindDirDegrees,DateUTC
12:58 AM,65.8,65.3,98,30.06,10.0,North,3.5,-,N/A,,Clear,10,2013-09-04 05:58:00
1:58 AM,63.7,63.7,100,30.06,10.0,NNE,2.3,-,N/A,,Clear,20,2013-09-04 06:58:00
2:58 AM,62.6,62.6,100,30.06,10.0,North,3.5,-,N/A,,Clear,360,2013-09-04 07:58:00
3:58 AM,61.3,61.3,100,30.06,10.0,NNE,4.6,-,N/A,,Clear,20,2013-09-04 08:58:00
4:58 AM,62.4,62.4,100,30.06,10.0,NW,1.2,-,N/A,,Clear,310,2013-09-04 09:58:00
5:58 AM,59.2,59.2,100,30.08,10.0,North,-9999.0,-,N/A,,Clear,0,2013-09-04 10:58:00
6:58 AM,59.4,59.4,100,30.10,8.0,NNE,2.3,-,N/A,,Clear,20,2013-09-04 11:58:00
7:58 AM,64.8,64.8,100,30.13,10.0,NNE,1.2,-,N/A,,Clear,30,2013-09-04 12:58:00
8:58 AM,68.9,65.8,90,30.14,10.0,Variable,2.3,-,N/A,,Clear,0,2013-09-04 13:58:00
9:58 AM,73.6,65.8,77,30.15,10.0,NNE,2.3,-,N/A,,Clear,30,2013-09-04 14:58:00
10:58 AM,75.6,62.4,64,30.16,10.0,NNE,5.8,-,N/A,,Clear,30,2013-09-04 15:58:00
11:58 AM,77.7,61.9,58,30.14,10.0,ENE,3.5,-,N/A,,Partly Cloudy,70,2013-09-04 16:58:00
12:58 PM,79.7,62.8,56,30.14,10.0,WNW,5.8,-,N/A,,Clear,290,2013-09-04 17:58:00
1:58 PM,80.4,61.2,52,30.12,10.0,Variable,2.3,-,N/A,,Clear,0,2013-09-04 18:58:00
2:58 PM,81.5,61.7,51,30.11,10.0,NNW,5.8,-,N/A,,Clear,330,2013-09-04 19:58:00
3:58 PM,81.5,60.4,49,30.09,10.0,NNW,5.8,-,N/A,,Clear,340,2013-09-04 20:58:00
4:58 PM,81.5,60.3,48,30.09,10.0,NNW,5.8,-,N/A,,Clear,340,2013-09-04 21:58:00
5:58 PM,79.7,62.8,56,30.10,10.0,North,5.8,-,N/A,,Clear,360,2013-09-04 22:58:00
6:58 PM,73.8,64.4,72,30.10,10.0,NNE,5.8,-,N/A,,Clear,30,2013-09-04 23:58:00
7:58 PM,69.8,63.9,81,30.11,10.0,NNE,3.5,-,N/A,,Clear,20,2013-09-05 00:58:00
8:58 PM,68.4,63.1,83,30.14,10.0,NE,4.6,-,N/A,,Clear,40,2013-09-05 01:58:00
9:58 PM,68.2,62.6,82,30.14,10.0,Variable,3.5,-,N/A,,Clear,0,2013-09-05 02:58:00
10:58 PM,65.7,61.9,88,30.14,10.0,North,4.6,-,N/A,,Clear,10,2013-09-05 03:58:00
11:58 PM,64.2,61.2,90,30.16,10.0,North,4.6,-,N/A,,Clear,10,2013-09-05 04:58:00